Flag for U.S.A. Weather past 2 weeks in Springfield, Missouri, U.S.A.

Now
56 °F

Clear.


Feels Like: 54 °F
Forecast: 45 / 62 °F
Wind: 7 mph from Northeast

Location: Springfield Regional Airport

Current Time: Apr 27, 2015 at 11:04:29 PM

Latest Report: Apr 27, 2015 at 9:52 PM


Visibility: 10 mi

Pressure: 30.03 "Hg

Humidity: 46%

Dew point: 35 °F

Location of SpringfieldLocation

Historic Weather in Springfield — Graph

°F

Springfield temperature yesterday

Maximum temperature yesterday: 56 °F (at 12:52 AM)
Minimum temperature yesterday: 50 °F (at 9:52 PM)
Average temperature yesterday: 53 °F

Past Weeks' High & Low Weather Summary

 TemperatureHumidityPressure
High76 °F (Apr 17, 4:52 PM)100% (Apr 19, 1:52 AM)30.18 "Hg (Apr 19, 1:52 AM)
Low42 °F (Apr 20, 10:52 PM)28% (Apr 23, 4:52 PM)29.48 "Hg (Apr 25, 7:52 AM)
Average58 °F66%29.91 "Hg
* Reported Apr 12 9:52 PM — Apr 27 9:52 PM, Springfield, Weather by CustomWeather, © 2015

Note: Actual official high and low records may vary slightly from our data, if they occured in-between our weather recording intervals... More about our weather records

Advertising

Springfield weather history for previous 24 hours

 ConditionsComfort  
Time TempWeatherWind HumidityBarometerVisibility
9:52 PM
Mon, Apr 27
56 °FClear.7 mph46%30.03 "Hg10 mi
8:52 PM56 °FSunny.8 mph47%30.02 "Hg10 mi
7:52 PM59 °FSunny.9 mph38%30.00 "Hg10 mi
6:52 PM62 °FSunny.12 mph34%29.98 "Hg10 mi
5:52 PM63 °FSunny.21 mph33%29.96 "Hg10 mi
4:52 PM65 °FSunny.21 mph31%29.96 "Hg10 mi
3:52 PM64 °FSunny.22 mph32%29.97 "Hg10 mi
2:52 PM63 °FSunny.21 mph33%29.98 "Hg10 mi
1:52 PM63 °FSunny.15 mph31%30.00 "Hg10 mi
12:52 PM62 °FSunny.23 mph32%30.01 "Hg10 mi
11:52 AM60 °FSunny.13 mph36%30.04 "Hg10 mi
10:52 AM58 °FSunny.20 mph35%30.06 "Hg10 mi
9:52 AM54 °FSunny.17 mph43%30.09 "Hg10 mi
8:52 AM50 °FSunny.9 mph54%30.10 "Hg10 mi
7:52 AM48 °FSunny.9 mph61%30.05 "Hg10 mi
6:52 AM47 °FClear.6 mph66%30.03 "Hg10 mi
5:52 AM47 °FClear.7 mph66%30.03 "Hg10 mi
4:52 AM48 °FClear.9 mph63%29.99 "Hg10 mi
3:52 AM49 °FClear.7 mph61%29.96 "Hg10 mi
2:52 AM51 °FClear.12 mph54%29.95 "Hg10 mi
1:52 AM51 °FClear.12 mph56%29.96 "Hg10 mi
12:52 AM51 °FClear.12 mph59%29.96 "Hg10 mi
11:52 PM
Sun, Apr 26
52 °FClear.13 mph59%29.94 "Hg10 mi
Weather by CustomWeather, © 2015

See weather overviewHow to use our weather pages